Terug naar catalogus

THORAD AGENA D DEB

ActiefLEO
NORAD 4207·DEBRIS·🇺🇸 United States

Gelanceerd Sep 30, 1969 vanaf Vandenberg Space Force Base

Loading…

Volgende Passages (komende 24 uur)

TLE

VersSource: Space-Track

Epoch: Sep 14, 2026, 10:48 UTC

1 04207U 69082BW  26257.45043371  .00002599  00000-0  43100-3 0  9993
2 04207  69.9581  68.6860 0020743  62.1598 298.1645 14.71271485980073

Volg THORAD AGENA D DEB in realtime met AllMySat

Download on the App Store